Location: Davayat
(45.9471°N, 3.1105°E)
Time: 23:06:36
(UTC+00:00)

Meteor 2-12 Rocket - Pass Details

Date: 26 April 2021
Orbit: 935 x 958 km, 82.5° (Epoch: 16 May)

Event Time Altitude Azimuth Distance (km) Brightness Sun altitude
Rises 23:42:35 0° 348° (NNW) 3,626 8.6 -30.2°
Reaches altitude 10° 23:45:07 10° 345° (NNW) 2,673 7.6 -30.2°
Enters shadow 23:50:45 63° 287° (WNW) 1,046 4.6 -30.2°
